KA7KDX-4 Weather Reports


time (UTC)temp
C
wind
direction
speed
KPH
gust
KPH
rain 1hr
cm
rain 24hr
cm
rain mn
cm
humidity
%
barometer
mb
20260505200505 16 168 9.7 20.9 0.00 0.00 0.00 37 1004.4
20260505200005 16 164 11.3 17.7 0.00 0.00 0.00 37 1004.5
20260505195506 16 184 11.3 19.3 0.00 0.00 0.00 37 1004.5
20260505195007 16 252 8.0 20.9 0.00 0.00 0.00 38 1004.5
20260505194505 16 146 6.4 16.1 0.00 0.00 0.00 37 1004.5
20260505194005 16 255 6.4 16.1 0.00 0.00 0.00 37 1004.6
20260505193506 16 162 6.4 16.1 0.00 0.00 0.00 37 1004.6
20260505193005 16 227 4.8 11.3 0.00 0.00 0.00 37 1004.6
20260505192505 16 197 6.4 14.5 0.00 0.00 0.00 37 1004.6
20260505192006 16 177 11.3 17.7 0.00 0.00 0.00 37 1004.6
20260505191505 16 189 11.3 19.3 0.00 0.00 0.00 37 1004.6
20260505191006 16 171 11.3 17.7 0.00 0.00 0.00 37 1004.7
20260505190506 16 256 6.4 11.3 0.00 0.00 0.00 38 1004.7
20260505190005 16 274 8.0 11.3 0.00 0.00 0.00 38 1004.7
20260505185505 16 188 9.7 20.9 0.00 0.00 0.00 37 1004.6
20260505185005 16 213 6.4 14.5 0.00 0.00 0.00 38 1004.8
20260505184505 16 199 12.9 17.7 0.00 0.00 0.00 38 1004.8
20260505184005 16 192 12.9 20.9 0.00 0.00 0.00 38 1004.7
20260505183505 16 190 12.9 24.1 0.00 0.00 0.00 38 1004.9
20260505183005 16 201 14.5 22.5 0.00 0.00 0.00 39 1004.8
20260505182505 16 196 12.9 20.9 0.00 0.00 0.00 39 1004.9
20260505182005 16 193 12.9 22.5 0.00 0.00 0.00 39 1004.9
20260505181506 16 185 14.5 22.5 0.00 0.00 0.00 39 1005.0
20260505181006 15 194 14.5 20.9 0.00 0.00 0.00 39 1005.0
20260505180506 15 195 16.1 25.7 0.00 0.00 0.00 38 1004.9
20260505180005 15 192 12.9 24.1 0.00 0.00 0.00 38 1005.1
20260505175505 15 186 12.9 22.5 0.00 0.00 0.00 38 1005.3
20260505175005 15 187 14.5 19.3 0.00 0.00 0.00 38 1005.3
20260505174505 15 184 14.5 22.5 0.00 0.00 0.00 37 1005.3
20260505174005 15 190 17.7 35.4 0.00 0.00 0.00 37 1005.2
20260505173505 15 183 19.3 30.6 0.00 0.00 0.00 37 1005.3
20260505173006 15 190 17.7 27.4 0.00 0.00 0.00 38 1005.4
20260505172506 15 191 19.3 37.0 0.00 0.00 0.00 38 1005.3
20260505172005 15 183 17.7 35.4 0.00 0.00 0.00 38 1005.3
20260505171506 15 179 25.7 38.6 0.00 0.00 0.00 39 1005.2
20260505171005 14 183 20.9 37.0 0.00 0.00 0.00 40 1005.3
20260505170505 14 181 19.3 35.4 0.00 0.00 0.00 39 1005.3
20260505170005 14 185 19.3 27.4 0.00 0.00 0.00 39 1005.4
20260505165505 14 175 17.7 25.7 0.00 0.00 0.00 40 1005.5
20260505165005 13 172 20.9 27.4 0.00 0.00 0.00 41 1005.7
20260505164506 13 169 20.9 29.0 0.00 0.00 0.00 41 1005.8
20260505164006 13 172 19.3 27.4 0.00 0.00 0.00 42 1005.9
20260505163506 13 173 20.9 29.0 0.00 0.00 0.00 44 1006.0
20260505163007 13 178 17.7 27.4 0.00 0.00 0.00 45 1006.1
20260505162505 13 171 19.3 27.4 0.00 0.00 0.00 44 1006.0
20260505162005 13 171 16.1 22.5 0.00 0.00 0.00 44 1006.2
20260505161505 13 175 19.3 25.7 0.00 0.00 0.00 44 1006.2
20260505161005 12 171 12.9 20.9 0.00 0.00 0.00 46 1006.3
20260505160505 12 178 12.9 20.9 0.00 0.00 0.00 46 1006.3
20260505153006 12 183 17.7 30.6 0.00 0.00 0.00 53 1006.4
20260505152505 12 180 17.7 25.7 0.00 0.00 0.00 54 1006.4
20260505152005 12 183 17.7 29.0 0.00 0.00 0.00 55 1006.5
20260505151505 12 180 14.5 20.9 0.00 0.00 0.00 57 1006.6
20260505151006 11 186 14.5 20.9 0.00 0.00 0.00 59 1006.7
20260505150506 11 188 16.1 24.1 0.00 0.00 0.00 60 1006.9
20260505140505 11 192 19.3 29.0 0.00 0.00 0.00 59 1006.7
20260505125005 12 192 16.1 25.7 0.00 0.00 0.00 54 1005.1
20260505124506 12 191 14.5 22.5 0.00 0.00 0.00 56 1005.1
20260505124006 12 195 16.1 22.5 0.00 0.00 0.00 55 1005.0
20260505123506 12 191 16.1 22.5 0.00 0.00 0.00 56 1005.0
20260505123005 12 187 16.1 25.7 0.00 0.00 0.00 56 1005.0
20260505122505 12 186 14.5 20.9 0.00 0.00 0.00 59 1005.1
20260505122005 12 188 12.9 20.9 0.00 0.00 0.00 59 1005.1
20260505121505 12 181 16.1 25.7 0.00 0.00 0.00 62 1005.3
20260505121005 11 185 14.5 19.3 0.00 0.00 0.00 66 1005.6
20260505120505 11 204 9.7 16.1 0.00 0.00 0.00 69 1005.8
20260505120006 11 205 9.7 14.5 0.00 0.00 0.00 69 1005.8
20260505115506 11 202 9.7 14.5 0.00 0.00 0.00 68 1005.8
20260505115006 11 201 9.7 16.1 0.00 0.00 0.00 67 1005.7
20260505114505 12 210 9.7 14.5 0.00 0.00 0.00 66 1005.6
20260505114005 12 216 11.3 19.3 0.00 0.00 0.00 63 1005.4
20260505113505 12 213 12.9 17.7 0.03 0.00 0.00 63 1005.3
20260505113005 12 220 9.7 20.9 0.00 0.00 0.00 61 1005.1
20260505112505 13 220 6.4 19.3 0.00 0.00 0.00 57 1004.8
20260505112005 13 249 8.0 12.9 0.00 0.00 0.00 54 1004.8
20260505111506 13 238 6.4 11.3 0.00 0.00 0.00 54 1004.9
20260505111006 13 208 6.4 9.7 0.00 0.00 0.00 56 1005.0
20260505110505 13 185 8.0 12.9 0.00 0.00 0.00 55 1005.0
20260505102006 13 156 14.5 19.3 0.00 0.00 0.00 55 1004.5
20260505101505 13 158 12.9 19.3 0.00 0.00 0.00 55 1004.6
20260505101005 13 162 14.5 17.7 0.00 0.00 0.00 55 1004.7
20260505100505 13 160 16.1 22.5 0.00 0.00 0.00 55 1004.7
20260505100005 13 168 16.1 20.9 0.00 0.00 0.00 56 1004.8
20260505095505 13 201 19.3 30.6 0.00 0.00 0.00 53 1004.8
20260505095005 13 196 20.9 29.0 0.03 0.00 0.00 54 1004.8
20260505094505 13 191 19.3 30.6 0.10 0.00 0.00 56 1004.9
20260505094006 13 197 22.5 32.2 0.13 0.00 0.00 56 1004.8
20260505093506 13 197 22.5 32.2 0.08 0.00 0.00 55 1004.7
20260505093006 13 196 24.1 37.0 0.03 0.00 0.00 53 1004.7
20260505092506 13 193 22.5 32.2 0.00 0.00 0.00 54 1004.9
20260505092005 13 194 22.5 32.2 0.00 0.00 0.00 55 1004.9
20260505091505 13 187 20.9 35.4 0.00 0.00 0.00 56 1004.9
20260505091005 13 196 22.5 32.2 0.00 0.00 0.00 54 1004.8
20260505090505 13 188 19.3 30.6 0.00 0.00 0.00 55 1004.8
20260505090005 13 192 24.1 41.8 0.00 0.00 0.00 52 1004.5
20260505085506 13 192 24.1 32.2 0.00 0.00 0.00 54 1004.5
20260505085006 14 190 22.5 33.8 0.00 0.00 0.00 54 1004.5
20260505084506 14 185 22.5 38.6 0.00 0.00 0.00 54 1004.5
20260505084005 14 180 19.3 32.2 0.00 0.00 0.00 52 1004.5
20260505083505 14 185 19.3 30.6 0.00 0.00 0.00 52 1004.5
20260505083005 14 178 19.3 32.2 0.00 0.00 0.00 53 1004.5
20260505082505 14 180 17.7 32.2 0.00 0.00 0.00 54 1004.5
20260505082005 14 179 22.5 32.2 0.00 0.00 0.00 55 1004.5
20260505081505 14 180 24.1 35.4 0.00 0.00 0.00 54 1004.4
20260505081005 13 177 22.5 32.2 0.00 0.00 0.00 55 1004.5
20260505080506 13 175 22.5 32.2 0.00 0.00 0.00 57 1004.6
20260505080006 13 173 25.7 46.7 0.00 0.00 0.00 57 1004.8
20260505075506 13 170 29.0 40.2 0.00 0.00 0.00 58 1004.8
20260505075006 13 158 19.3 27.4 0.00 0.00 0.00 59 1004.7
20260505074505 13 164 19.3 25.7 0.00 0.00 0.00 55 1004.8
20260505074005 13 160 19.3 27.4 0.00 0.00 0.00 56 1004.6
20260505073505 14 167 25.7 51.5 0.00 0.00 0.00 55 1004.6
20260505073005 14 169 30.6 51.5 0.00 0.00 0.00 53 1004.2
20260505072505 14 165 19.3 41.8 0.00 0.00 0.00 53 1004.4
20260505072005 14 169 25.7 46.7 0.00 0.00 0.00 53 1004.4
20260505071506 14 175 20.9 30.6 0.00 0.00 0.00 52 1004.2
20260505071006 14 176 19.3 27.4 0.00 0.00 0.00 51 1004.3
20260505070506 14 171 22.5 30.6 0.00 0.00 0.00 53 1004.3
20260505070005 14 170 22.5 32.2 0.00 0.00 0.00 52 1004.2
20260505065505 14 168 27.4 35.4 0.00 0.00 0.00 54 1004.3
20260505065005 13 174 24.1 33.8 0.00 0.00 0.00 54 1004.3
20260505064505 13 176 24.1 37.0 0.00 0.00 0.00 54 1004.3
20260505064005 14 171 30.6 43.5 0.03 0.00 0.00 54 1004.2
20260505063505 14 173 32.2 45.1 0.03 0.00 0.00 54 1004.1
20260505063006 14 171 35.4 49.9 0.00 0.00 0.00 53 1004.1
20260505062506 13 168 32.2 41.8 0.00 0.00 0.00 53 1004.1
20260505062006 13 172 32.2 45.1 0.00 0.00 0.00 54 1004.2
20260505061505 13 173 27.4 40.2 0.00 0.00 0.00 55 1004.3
20260505061005 13 173 30.6 43.5 0.00 0.00 0.00 56 1004.4
20260505060506 13 171 24.1 37.0 0.00 0.00 0.00 57 1004.3
20260505060005 13 169 25.7 43.5 0.00 0.00 0.00 57 1004.5
20260505055505 13 173 25.7 38.6 0.03 0.00 0.00 58 1004.5
20260505055005 13 174 32.2 43.5 0.03 0.00 0.00 58 1004.5
20260505054505 13 175 29.0 43.5 0.03 0.00 0.00 59 1004.5
20260505054006 13 174 37.0 51.5 0.03 0.00 0.00 59 1004.3
20260505053506 13 172 41.8 54.7 0.03 0.00 0.00 59 1004.3
20260505053005 13 172 40.2 54.7 0.03 0.00 0.00 59 1004.3
20260505052506 13 169 33.8 53.1 0.03 0.00 0.00 60 1004.2
20260505052005 13 171 38.6 53.1 0.10 0.00 0.00 60 1004.1
20260505051505 13 175 41.8 54.7 0.18 0.00 0.00 59 1004.1
20260505051005 14 176 43.5 56.3 0.15 0.00 0.00 58 1004.0
20260505050505 14 177 35.4 53.1 0.13 0.00 0.00 57 1003.7
20260505041505 16 148 16.1 25.7 0.00 0.00 0.00 46 1002.6
20260505041005 16 148 17.7 24.1 0.00 0.00 0.00 46 1002.4
20260505040506 16 150 20.9 33.8 0.00 0.00 0.00 45 1002.3
20260505040006 16 149 17.7 29.0 0.00 0.00 0.00 46 1002.3
20260505035505 16 148 16.1 24.1 0.00 0.00 0.00 45 1002.2
20260505035005 16 150 22.5 32.2 0.00 0.00 0.00 45 1002.0
20260505034505 16 152 25.7 35.4 0.00 0.00 0.00 45 1001.9
20260505034005 16 148 19.3 32.2 0.00 0.00 0.00 44 1002.0
20260505033505 16 152 29.0 40.2 0.00 0.00 0.00 43 1001.7
20260505033005 16 150 25.7 37.0 0.00 0.00 0.00 44 1001.6
20260505032505 16 151 29.0 40.2 0.00 0.00 0.00 44 1001.4
20260505032006 17 149 27.4 43.5 0.00 0.00 0.00 43 1001.2
20260505031506 17 150 24.1 37.0 0.00 0.00 0.00 41 1001.2
20260505031006 17 149 27.4 33.8 0.00 0.00 0.00 42 1001.0
20260505030505 17 149 24.1 30.6 0.00 0.00 0.00 41 1000.9
20260505030005 18 150 19.3 27.4 0.00 0.00 0.00 39 1000.7
20260505025506 18 148 17.7 32.2 0.00 0.00 0.00 38 1000.5
20260505025005 18 151 17.7 46.7 0.00 0.00 0.00 37 1000.4
20260505024505 18 150 16.1 22.5 0.00 0.00 0.00 36 1000.4
20260505024005 17 148 14.5 24.1 0.00 0.00 0.00 36 1000.5
20260505023505 17 149 16.1 27.4 0.00 0.00 0.00 39 1000.5
20260505023006 18 144 11.3 17.7 0.00 0.00 0.00 39 1000.2
20260505022506 18 142 8.0 12.9 0.00 0.00 0.00 37 999.9
20260505022005 19 143 6.4 9.7 0.00 0.00 0.00 35 999.6
20260505021505 19 154 8.0 11.3 0.00 0.00 0.00 34 999.4
20260505021005 20 157 6.4 11.3 0.00 0.00 0.00 33 999.1
20260505020505 20 158 8.0 16.1 0.00 0.00 0.00 32 999.0
20260505020005 20 169 11.3 14.5 0.00 0.00 0.00 31 998.8
20260505015505 20 163 11.3 16.1 0.00 0.00 0.00 31 998.8
20260505015005 20 170 12.9 19.3 0.00 0.00 0.00 31 998.7
20260505014506 20 171 11.3 22.5 0.00 0.00 0.00 31 998.8
20260505014006 20 164 11.3 16.1 0.00 0.00 0.00 31 998.8
20260505013506 20 155 11.3 19.3 0.00 0.00 0.00 31 998.8
20260505013006 20 148 9.7 27.4 0.00 0.00 0.00 31 998.7
20260505012505 20 146 8.0 33.8 0.00 0.00 0.00 30 998.8
20260505012005 20 150 8.0 33.8 0.00 0.00 0.00 30 998.9
20260505011506 20 168 6.4 12.9 0.00 0.00 0.00 30 998.9
20260505011005 20 168 6.4 11.3 0.00 0.00 0.00 29 998.9
20260505010505 20 164 9.7 14.5 0.00 0.00 0.00 28 998.9
20260505010005 20 148 6.4 12.9 0.00 0.00 0.00 29 999.0
20260505005506 20 144 8.0 20.9 0.00 0.00 0.00 29 999.1
20260505005006 20 142 9.7 35.4 0.00 0.00 0.00 30 999.2
20260505004506 20 135 12.9 43.5 0.00 0.00 0.00 31 999.2
20260505004005 20 134 20.9 41.8 0.00 0.00 0.00 30 999.3
20260505003505 20 132 16.1 41.8 0.00 0.00 0.00 32 999.3
20260505003005 20 122 22.5 49.9 0.00 0.00 0.00 32 999.4
20260505002505 20 122 14.5 35.4 0.00 0.00 0.00 32 999.4
20260505002005 20 129 9.7 24.1 0.00 0.00 0.00 31 999.4
20260505001505 20 150 3.2 9.7 0.00 0.00 0.00 31 999.5
20260505001005 20 142 6.4 20.9 0.00 0.00 0.00 31 999.6
20260505000506 20 147 4.8 16.1 0.00 0.00 0.00 32 999.7
20260505000006 20 193 6.4 9.7 0.00 0.00 0.00 33 999.9
20260504235506 20 229 8.0 14.5 0.00 0.00 0.00 34 1000.1
20260504235005 20 234 11.3 20.9 0.00 0.00 0.00 34 1000.1
20260504234505 20 231 11.3 19.3 0.00 0.00 0.00 34 1000.1
20260504234005 20 244 12.9 22.5 0.00 0.00 0.00 33 1000.1
20260504233505 20 214 11.3 19.3 0.00 0.00 0.00 33 1000.1
20260504233005 20 213 11.3 38.6 0.00 0.00 0.00 33 1000.1
20260504232505 20 236 11.3 19.3 0.00 0.00 0.00 33 1000.1
20260504232007 20 215 11.3 20.9 0.00 0.00 0.00 33 1000.0
20260504231506 20 225 14.5 20.9 0.00 0.00 0.00 33 999.9
20260504231006 20 233 12.9 20.9 0.00 0.00 0.00 33 999.8
20260504230505 21 216 9.7 22.5 0.00 0.00 0.00 32 999.8
20260504230005 21 207 14.5 22.5 0.00 0.00 0.00 32 999.9
20260504225505 21 221 16.1 24.1 0.00 0.00 0.00 32 1000.1
20260504225005 20 222 14.5 25.7 0.00 0.00 0.00 31 1000.2
20260504224505 20 206 17.7 27.4 0.00 0.00 0.00 31 1000.2
20260504224005 20 213 14.5 20.9 0.00 0.00 0.00 31 1000.3
20260504223505 21 217 14.5 22.5 0.00 0.00 0.00 32 1000.3
20260504223006 20 179 16.1 22.5 0.00 0.00 0.00 32 1000.4
20260504222506 20 182 17.7 27.4 0.00 0.00 0.00 31 1000.3
20260504222006 20 159 16.1 22.5 0.00 0.00 0.00 30 1000.4
20260504221505 20 151 16.1 24.1 0.00 0.00 0.00 30 1000.5
20260504221005 20 167 16.1 22.5 0.00 0.00 0.00 30 1000.5
20260504220505 20 169 17.7 24.1 0.00 0.00 0.00 31 1000.7
20260504220005 20 167 17.7 29.0 0.00 0.00 0.00 31 1000.8
20260504215505 20 160 17.7 25.7 0.00 0.00 0.00 32 1001.1
20260504215006 20 167 22.5 38.6 0.00 0.00 0.00 33 1001.5
20260504214506 20 279 19.3 54.7 0.00 0.00 0.00 34 1001.8
20260504214006 20 311 19.3 43.5 0.00 0.00 0.00 34 1001.9
20260504213505 19 354 19.3 53.1 0.00 0.00 0.00 35 1001.9
20260504213005 20 172 19.3 59.5 0.00 0.00 0.00 36 1002.2
20260504212505 19 318 30.6 62.8 0.00 0.00 0.00 36 1002.2
20260504212005 19 313 22.5 54.7 0.00 0.00 0.00 34 1002.1
20260504211505 19 303 9.7 22.5 0.00 0.00 0.00 32 1002.3
20260504211005 19 284 19.3 25.7 0.00 0.00 0.00 32 1002.3
20260504210505 19 270 19.3 27.4 0.00 0.00 0.00 32 1002.3
20260504210006 18 285 20.9 32.2 0.00 0.00 0.00 31 1002.2
20260504205506 18 272 22.5 33.8 0.00 0.00 0.00 32 1002.1
20260504205006 18 286 20.9 30.6 0.00 0.00 0.00 34 1002.1
20260504204505 18 283 22.5 30.6 0.00 0.00 0.00 34 1002.3
20260504204005 18 281 20.9 32.2 0.00 0.00 0.00 35 1002.4
20260504203505 18 288 14.5 24.1 0.00 0.00 0.00 36 1002.5
20260504203005 18 278 19.3 25.7 0.00 0.00 0.00 38 1002.7
20260504202505 18 274 22.5 29.0 0.00 0.00 0.00 37 1002.8
20260504202005 17 295 20.9 27.4 0.00 0.00 0.00 41 1002.8
20260504201506 18 304 14.5 24.1 0.00 0.00 0.00 42 1002.7
20260504201006 18 303 11.3 20.9 0.00 0.00 0.00 40 1002.2